Погода в Чарлстоне

США     32°51′05″N   79°58′15″W
темп.,
°C
ветер,
м/с
пор.,
м/с
влажн.,
%
обл.,
%
осадки,
мм/ч
давл.,
гПа
погр.,
м
15 мая, сб
сб1523:00+15всв24600 0.0 1024133
02:00+15св23630 0.0 1023100
05:00+13с23700 0.0 102467
08:00+15с35600 0.0 1026189
11:00+23ссв46290 0.0 10251984
14:00+25в45274 0.0 10242478
17:00+22вюв44360 0.0 10231076
20:00+17ююв23560 0.0 1023104
16 мая, вс
вс1623:00+16ююв23600 0.0 102475
02:00+15ю12640 0.0 102378
05:00+14сз11670 0.0 102324
08:00+17сз125996 0.0 1026107
11:00+25св12345 0.0 10261295
14:00+25юв53345 0.0 10241722
17:00+24ю54406 0.0 10231065
20:00+19ю25650 0.0 1023172
17 мая, пн
пн1723:00+17ююз24735 0.0 1023100
02:00+16зюз23766 0.0 102368
05:00+16зсз1178100 0.0 102219
08:00+18ссз12668 0.0 1024116
11:00+25юв214227 0.0 10241178
14:00+26ююв434058 0.0 10231743
17:00+25ю4444100 0.0 1022804
20:00+20ююв2467100 0.0 1023140
18 мая, вт
вт1823:00+20вюв2472100 0.0 1024121
02:00+19вюв2280100 0.0 102354
05:00+18всв22845 0.0 102360
08:00+20св367010 0.0 1025326
11:00+24в455218 0.0 10251183
14:00+25в655490 0.0 10251133
17:00+23в566147 0.0 10241058
20:00+20в367423 0.0 1025431
19 мая, ср
ср1923:00+19в36795 0.0 1026242
02:00+18всв37808 0.0 1025252
05:00+18всв38775 0.0 1025329
08:00+20всв48645 0.0 1026836
11:00+24в57415 0.0 10271416
14:00+25в56435 0.0 10271458
17:00+24в565666 0.0 10261128
20:00+20в49805 0.0 1026508